User: anonymous   Login
Location: 02324
(41.9834°N, 70.9022°W)
Time: 14:24:18
(UTC-04:00)
Language:

H-2A R/B - Orbit

View from above orbital plane
View from above orbital plane
View from above satellite
View from above satellite

Ground track
Ground track

The orbit data is extracted from the following two-line orbital elements,

1 36105U 09066B   17291.74309420 0.00001250  00000-0  68933-4 0    09
2 36105  97.3187 318.8790 0029660 275.0511  84.9488 15.13639476    08
Epoch (UTC): 18 October 2017 17:50:03
Eccentricity: 0.0029660
inclination: 97.3187°
perigee height: 504 km
apogee height: 545 km
right ascension of ascending node: 318.8790°
argument of perigee: 275.0511°
revolutions per day: 15.13639476
mean anomaly at epoch: 84.9488°
orbit number at epoch: 0

The dashed part of the orbit path shows where the satellite is in the earth's shadow,  

DLR